Temperature
17 17 17 18 18 18 18 18 18 17 16 16 16 16 16 16 15 15 15 15 15 14 14 14 14 14 13 13 13 13 13 13 13 13 13 13 13 13
17 17 17 17 17 17 17 17 17 17 16 16 15 15 15 15 15 15 14 14 14 14 14 13 13 13 13 13 13 12 12 12 12 12 12 12 12 12
17 17 17 17 17 17 17 17 17 17 17 16 15 15 15 14 14 14 14 14 13 13 13 12 12 12 12 12 12 11 11 11 11 11 11 11 11 11
16 16 16 16 16 17 17 17 17 16 16 16 15 14 14 14 14 13 13 13 13 12 12 12 11 11 11 11 11 10 10 10 10 10 10 9 9 9
16 16 16 16 16 16 16 16 16 16 15 15 15 14 13 13 13 13 12 12 12 11 11 11 11 10 10 10 10 9 9 9 9 9 9 8 8 8
15 15 15 16 16 15 15 15 15 15 15 14 14 13 13 13 12 12 12 11 11 10 10 10 10 9 9 9 9 8 8 8 8 8 7 7 7 7
15 15 15 15 15 15 15 14 14 14 14 14 13 13 12 12 12 11 11 11 10 10 10 9 9 9 8 8 8 7 7 7 7 7 6 6 6 6
14 14 14 14 14 14 14 14 13 13 13 13 12 12 12 11 11 11 10 10 9 9 9 8 8 8 8 7 7 7 6 6 6 6 6 6 6 6
14 14 14 14 14 13 13 13 13 12 12 12 12 11 11 10 10 10 9 9 9 8 8 8 7 7 7 6 6 6 6 6 5 5 5 5 5 5
13 13 13 13 13 13 12 12 12 11 11 11 11 10 10 9 9 9 9 8 8 8 7 7 7 6 6 6 6 5 5 5 5 5 5 4 4 4
13 12 12 12 12 11 12 11 11 10 10 10 9 9 9 8 8 8 8 8 7 7 7 6 6 6 6 5 5 5 5 5 4 4 4 4 4 4
12 11 11 11 11 10 10 10 10 9 9 8 8 8 8 8 7 7 7 7 7 6 6 6 5 5 5 5 5 4 4 4 4 4 4 4 4 4
11 11 10 10 10 10 9 9 9 8 8 8 7 7 7 7 7 6 6 6 6 6 5 5 5 5 5 4 4 4 4 4 4 4 4 3 3 3
11 10 10 9 9 9 8 8 8 8 7 7 7 6 6 6 6 6 5 5 5 5 5 5 4 4 4 4 4 4 4 4 4 3 3 3 3 3
10 9 9 8 8 8 8 7 7 7 7 6 6 5 5 5 5 5 5 5 5 4 4 4 4 4 4 4 4 4 4 4 3 3 3 3 3 3
9 8 8 8 8 7 7 7 6 6 6 6 5 5 5 5 5 5 5 4 4 4 4 4 4 4 4 4 4 4 4 3 3 3 3 3 3 3
8 8 7 7 7 6 6 6 6 6 5 5 5 5 5 5 5 4 4 4 4 4 4 4 4 4 4 4 4 4 4 3 3 3 3 3 3 3
8 7 7 7 6 6 6 6 5 5 5 5 5 5 5 5 4 4 4 4 4 4 4 4 4 4 4 4 4 4 3 3 3 3 3 3 3 3
7 7 6 6 6 6 6 5 5 5 5 5 5 5 5 4 4 4 4 4 4 4 4 4 4 4 4 4 4 4 3 3 3 3 3 3 3 3
7 6 6 6 6 5 5 5 5 5 5 5 4 4 4 4 4 4 4 4 4 4 4 4 4 3 3 3 3 4 4 4 3 3 3 3 3 3
6 6 6 6 6 5 5 5 5 5 5 4 4 4 4 4 4 4 4 4 4 4 4 4 4 3 3 4 4 4 4 4 4 3 3 3 3 3
6 6 6 5 5 5 5 5 5 5 5 5 4 4 4 4 4 4 4 4 4 4 4 4 4 4 4 3 3 3 4 4 4 3 3 3 3 3
6 6 5 5 5 5 5 5 5 5 5 4 4 4 4 4 4 4 4 4 4 4 4 4 4 4 4 3 3 3 3 3 3 3 3 3 3 3
Wind_Speed
4 3 2 1 2 2 3 4 5 3 1 0 1 2 5 8 8 9 9 9 9 9 9 8 8 8 9 9 9 9 9 9 9 10 10 10 10 11
3 3 2 1 2 2 3 3 4 5 3 1 1 2 5 7 8 9 10 10 10 10 9 9 9 9 9 9 10 10 10 10 10 10 10 11 11 11
3 4 3 3 3 3 3 3 3 4 5 2 3 3 4 5 7 9 8 9 9 9 9 8 9 9 9 10 10 10 11 11 10 10 10 10 11 12
4 4 4 4 5 4 4 4 4 4 6 6 3 3 4 4 5 6 7 8 9 9 9 9 9 9 9 10 9 9 9 9 9 10 10 10 11 11
4 5 5 6 6 4 5 5 4 5 6 6 4 3 4 3 4 5 6 6 7 8 8 9 9 8 8 8 7 6 6 6 7 8 9 10 10 11
5 5 4 6 6 6 5 5 6 7 7 7 5 3 3 2 4 4 4 3 3 7 8 8 8 8 7 5 4 4 4 4 6 7 9 9 10 11
6 6 6 9 9 7 6 5 7 7 7 7 5 4 4 3 2 1 3 2 3 4 4 6 7 7 7 6 5 5 5 6 7 8 9 10 11 12
9 8 8 10 13 15 14 11 9 9 8 6 5 5 3 2 2 3 3 3 2 3 3 3 5 3 5 5 6 7 8 8 9 10 11 12 13 14
8 8 8 8 10 10 14 16 14 13 10 8 7 5 4 2 3 4 4 4 2 2 2 2 3 2 4 6 8 9 10 10 11 12 13 13 13 14
7 7 9 8 8 10 11 11 9 8 9 8 8 6 5 4 4 4 4 4 3 4 4 2 3 2 4 6 9 11 11 12 12 13 14 14 14 14
7 7 8 8 11 13 12 11 10 8 13 15 14 12 11 10 8 5 4 5 3 3 3 2 2 2 3 3 8 11 12 12 13 13 14 15 16 15
7 7 9 10 11 11 10 10 9 6 6 8 9 9 9 10 9 6 4 4 2 1 2 2 1 2 3 3 6 10 11 12 13 14 14 15 15 12
7 6 6 12 12 11 9 8 8 7 6 7 6 5 5 5 6 6 4 4 3 1 2 2 0 1 0 3 4 6 9 9 11 11 15 16 16 12
8 6 7 13 12 11 8 9 11 8 6 6 5 4 3 3 2 4 5 4 3 2 2 2 2 2 1 1 4 4 7 10 8 7 13 16 15 15
7 10 11 13 11 9 10 11 9 7 6 5 4 2 1 1 2 4 6 6 6 4 2 1 2 1 2 2 3 3 4 5 7 6 8 9 8 9
8 10 12 11 8 7 7 6 5 5 6 5 4 2 2 2 2 2 2 2 3 4 6 4 1 2 1 2 2 3 3 4 5 5 5 6 11 12
9 6 5 4 4 4 4 5 4 5 5 3 4 3 3 2 2 2 2 2 2 2 4 5 6 4 4 3 2 4 4 4 5 5 4 5 6 11
9 6 5 4 4 4 5 4 3 3 3 3 3 3 3 2 1 1 2 2 1 1 2 2 3 4 5 3 5 4 4 4 5 5 3 4 6 8
6 5 4 4 4 4 4 4 3 2 3 4 3 3 2 2 2 1 1 1 1 1 2 2 1 2 2 4 6 5 4 4 4 5 4 4 5 8
4 5 5 5 5 5 4 4 3 3 2 3 3 2 2 2 1 1 1 1 0 1 2 3 2 1 2 3 4 5 9 5 4 4 5 5 6 11
4 4 4 5 5 5 5 4 4 3 3 3 2 2 2 2 1 1 1 0 0 0 2 3 5 6 2 1 3 6 6 12 8 5 5 5 6 5
4 4 4 5 5 5 5 4 4 4 3 3 2 2 2 2 2 1 1 1 1 2 3 4 5 4 1 2 4 6 6 8 13 15 11 8 4 4
5 5 5 5 5 5 5 5 5 4 4 4 3 3 2 2 1 1 1 1 2 2 2 3 4 3 2 3 4 5 7 7 5 6 8 16 16 16
Wind_Direction
176 171 170 190 160 161 159 156 151 156 179 187 74 54 109 109 115 116 114 115 114 111 104 96 90 86 82 78 73 68 60 52 45 38 29 20 13 6
162 153 155 141 105 112 136 139 146 149 153 148 96 84 97 102 98 103 103 103 104 107 103 96 91 89 86 83 77 71 62 54 47 41 35 29 23 17
151 144 140 128 115 101 100 105 117 124 130 109 60 62 72 85 86 93 94 95 94 99 102 96 90 89 90 90 83 75 67 59 52 46 40 33 27 21
150 132 126 117 103 100 102 102 108 116 130 127 89 61 68 86 96 92 85 91 91 94 98 94 90 94 100 99 92 84 73 62 52 43 33 26 21 16
135 131 129 120 107 99 97 101 104 106 107 122 116 78 67 72 75 73 76 75 83 79 82 83 83 88 106 107 100 93 77 60 43 31 21 15 11 6
105 110 113 118 121 114 105 106 109 106 106 112 107 85 69 60 77 74 63 43 59 63 64 70 70 71 83 91 81 73 59 35 18 10 5 1 357 353
98 94 99 106 108 108 112 112 114 112 110 110 104 90 75 72 78 72 83 67 49 43 56 56 55 50 49 49 44 30 18 6 359 357 354 351 348 343
115 100 92 89 92 89 90 93 106 119 124 117 113 111 109 95 87 95 96 82 44 6 58 40 45 35 26 32 23 12 5 359 351 347 344 342 340 338
125 121 111 100 93 94 86 81 78 85 104 125 122 123 125 136 110 91 87 94 95 325 72 37 6 3 5 16 14 5 1 358 352 345 340 336 334 332
114 118 118 113 109 107 100 88 77 70 86 95 108 108 113 112 110 123 120 100 66 21 51 65 348 343 349 6 10 3 358 353 348 346 342 337 333 330
101 106 115 114 116 111 107 102 91 78 85 94 96 94 89 89 97 90 82 85 59 360 8 78 344 342 341 331 343 349 349 345 343 342 341 339 337 334
97 97 108 116 119 115 112 112 108 104 99 88 77 72 71 70 76 97 121 113 104 12 327 65 2 12 350 316 317 332 340 341 338 337 339 340 339 335
117 109 106 110 110 111 113 117 130 128 112 104 92 79 65 57 54 66 103 131 129 187 239 134 110 27 313 304 311 312 320 322 329 331 336 336 335 330
126 122 116 112 107 104 101 111 115 111 105 100 95 88 81 68 49 57 69 83 121 189 231 163 164 181 173 308 300 307 315 319 320 315 324 330 330 331
118 120 114 107 98 90 93 100 103 107 109 107 107 108 115 100 70 54 46 52 50 41 36 111 167 184 175 214 271 291 306 307 310 312 316 316 309 313
112 112 104 95 88 89 88 87 90 110 118 121 123 114 86 68 60 62 64 41 35 354 355 2 339 176 214 249 244 282 287 290 301 308 308 307 311 312
125 110 101 99 94 89 86 89 93 100 101 108 112 102 86 74 54 53 79 73 63 352 332 334 339 320 246 217 270 283 290 293 287 299 315 314 301 306
125 128 130 128 131 130 123 113 104 110 116 119 116 117 115 107 78 50 72 81 64 331 311 311 346 4 358 315 240 250 284 280 290 298 296 304 301 304
121 132 141 149 149 147 144 139 137 139 131 128 129 129 128 122 111 86 61 54 22 318 298 305 8 57 8 324 301 267 236 282 296 302 295 277 280 292
133 146 157 160 157 155 155 152 147 138 129 130 131 133 133 132 128 121 110 138 214 313 326 322 305 246 221 249 271 287 294 263 279 294 295 295 284 293
157 159 161 160 158 159 160 157 151 151 152 146 144 149 145 133 134 154 182 249 169 259 300 288 274 290 254 305 316 305 296 306 294 266 280 299 307 313
160 158 163 164 159 159 159 155 151 151 151 149 154 155 150 140 148 162 178 208 244 253 271 283 301 327 358 320 300 296 299 309 321 323 309 284 257 281
164 162 164 167 164 159 157 159 158 160 162 160 160 161 152 144 160 175 201 222 255 279 293 308 321 328 304 281 288 293 301 306 311 319 313 319 317 305
Height
1565 1566 1567 1568 1569 1570 1571 1572 1573 1573 1575 1576 1577 1577 1578 1579 1579 1580 1580 1581 1581 1581 1580 1580 1579 1579 1578 1577 1576 1575 1574 1573 1572 1571 1570 1569 1567 1566
1562 1563 1564 1565 1566 1567 1568 1569 1570 1571 1572 1573 1574 1575 1576 1576 1577 1578 1578 1579 1579 1578 1578 1578 1577 1576 1575 1574 1573 1573 1571 1570 1568 1567 1565 1564 1562 1561
1559 1560 1561 1562 1563 1564 1565 1566 1568 1569 1569 1571 1572 1574 1574 1575 1575 1576 1576 1576 1576 1576 1576 1576 1575 1574 1573 1572 1571 1570 1569 1567 1565 1563 1562 1560 1558 1556
1556 1557 1558 1559 1560 1561 1562 1564 1565 1566 1567 1568 1570 1571 1572 1573 1574 1574 1574 1575 1574 1574 1574 1573 1573 1572 1571 1570 1569 1568 1566 1565 1563 1561 1559 1557 1555 1553
1553 1555 1556 1557 1558 1559 1560 1561 1563 1564 1565 1566 1567 1569 1570 1571 1571 1572 1572 1572 1572 1572 1572 1572 1571 1570 1569 1568 1567 1566 1564 1563 1561 1559 1556 1554 1552 1550
1550 1552 1553 1554 1555 1556 1558 1559 1561 1562 1563 1564 1565 1566 1568 1568 1569 1570 1570 1570 1570 1571 1570 1570 1569 1569 1568 1567 1565 1564 1562 1561 1559 1557 1554 1552 1549 1547
1548 1549 1551 1552 1553 1554 1556 1557 1559 1560 1561 1562 1563 1564 1565 1566 1566 1567 1568 1568 1568 1569 1568 1568 1567 1567 1566 1565 1564 1562 1561 1559 1557 1554 1552 1550 1547 1544
1546 1547 1549 1550 1551 1553 1554 1556 1557 1558 1559 1560 1561 1562 1562 1563 1564 1565 1565 1566 1566 1567 1567 1566 1566 1565 1564 1563 1562 1560 1559 1557 1554 1552 1550 1547 1544 1541
1544 1545 1546 1548 1550 1551 1552 1554 1555 1556 1558 1559 1559 1560 1561 1561 1562 1563 1563 1564 1564 1565 1565 1565 1564 1563 1562 1561 1560 1558 1557 1554 1552 1550 1547 1544 1541 1538
1542 1543 1545 1546 1548 1550 1551 1552 1553 1555 1556 1557 1558 1559 1560 1560 1561 1562 1562 1562 1563 1563 1564 1563 1563 1562 1561 1560 1558 1556 1554 1552 1550 1548 1545 1542 1539 1535
1540 1541 1543 1545 1546 1548 1550 1550 1552 1553 1555 1556 1557 1558 1559 1559 1560 1561 1561 1561 1561 1562 1562 1562 1561 1560 1559 1558 1556 1555 1553 1551 1548 1545 1542 1539 1536 1533
1538 1540 1542 1544 1546 1547 1549 1549 1551 1552 1554 1555 1556 1557 1558 1559 1559 1559 1560 1560 1560 1561 1561 1560 1559 1558 1557 1557 1555 1553 1551 1549 1546 1543 1540 1537 1533 1530
1537 1539 1541 1544 1545 1547 1548 1549 1551 1552 1553 1555 1556 1557 1558 1558 1558 1558 1559 1559 1559 1559 1560 1559 1558 1557 1556 1555 1553 1552 1549 1547 1544 1541 1538 1534 1531 1527
1535 1538 1540 1543 1545 1546 1548 1549 1550 1552 1553 1555 1556 1557 1557 1558 1558 1558 1558 1558 1558 1559 1558 1558 1557 1556 1555 1553 1552 1550 1548 1545 1542 1538 1535 1532 1528 1525
1535 1538 1540 1542 1544 1546 1548 1549 1550 1552 1553 1554 1555 1557 1557 1558 1558 1559 1559 1559 1559 1559 1558 1558 1557 1555 1554 1553 1551 1549 1546 1543 1540 1537 1533 1529 1525 1522
1535 1538 1540 1542 1544 1546 1548 1550 1551 1552 1554 1555 1556 1557 1558 1559 1559 1559 1559 1559 1559 1559 1559 1558 1556 1555 1553 1552 1550 1547 1545 1542 1538 1535 1531 1527 1524 1520
1535 1538 1540 1542 1544 1546 1548 1550 1552 1553 1554 1556 1557 1558 1558 1559 1559 1560 1560 1559 1559 1559 1558 1557 1556 1554 1553 1551 1548 1546 1543 1540 1537 1533 1529 1525 1522 1518
1536 1537 1540 1542 1544 1546 1548 1550 1552 1554 1555 1557 1558 1558 1558 1559 1560 1560 1560 1559 1559 1558 1557 1556 1555 1553 1552 1549 1548 1544 1542 1538 1535 1532 1528 1523 1519 1516
1536 1538 1540 1542 1545 1547 1549 1550 1552 1554 1555 1557 1558 1558 1559 1559 1559 1559 1559 1559 1558 1558 1557 1555 1554 1552 1549 1547 1546 1544 1540 1537 1533 1529 1526 1522 1517 1513
1536 1538 1541 1543 1545 1547 1549 1550 1552 1554 1556 1557 1558 1558 1559 1559 1559 1559 1558 1558 1558 1557 1556 1555 1553 1551 1549 1547 1543 1541 1539 1535 1531 1527 1523 1519 1515 1512
1536 1539 1541 1543 1545 1547 1549 1551 1553 1554 1555 1556 1557 1558 1558 1558 1558 1558 1558 1558 1557 1556 1555 1553 1552 1550 1548 1545 1542 1539 1536 1533 1530 1526 1521 1517 1512 1508
1536 1539 1541 1543 1545 1547 1549 1550 1552 1553 1555 1556 1556 1557 1557 1557 1557 1557 1557 1556 1556 1555 1553 1552 1550 1548 1546 1543 1539 1536 1533 1530 1528 1524 1521 1517 1512 1506
1536 1539 1541 1543 1545 1547 1548 1550 1551 1552 1553 1554 1555 1555 1555 1555 1555 1555 1555 1555 1554 1553 1552 1550 1548 1546 1543 1541 1537 1534 1531 1527 1524 1520 1517 1514 1511 1507